This demonstration page uses our WeatherBlox Daily Observations layout. Learn more.

Left ArrowRight Arrow

Hourly Observations for May 8, 2021

Temp ( °F °C ) Dew Point ( °F °C ) Humidity (%) Winds ( mph kmh ) Pressure ( in mb ) Visibility ( mi km ) Precip ( " mm )
12:53 am 00:53 Clear 64 17.8 26 -3.3 24 24 N 13 20 30.11 1020 10 16 0.00 0.00
1:53 am 01:53 Clear 61 16.1 27 -2.8 27 27 N 13 20 30.12 1020 10 16 0.00 0.00
2:53 am 02:53 Clear 60 15.6 27 -2.8 28 28 N 12 19 30.13 1020 10 16 0.00 0.00
3:53 am 03:53 Clear 61 16.1 25 -3.9 25 25 N 16 26 30.13 1020 10 16 0.00 0.00
4:53 am 04:53 Clear 58 14.4 28 -2.2 32 32 N 12 19 30.14 1021 10 16 0.00 0.00
5:53 am 05:53 Clear 59 15 27 -2.8 29 29 N 13 20 30.15 1021 10 16 0.00 0.00
6:53 am 06:53 Sunny 60 15.6 26 -3.3 27 27 N 15 24 30.16 1021 10 16 0.00 0.00
7:53 am 07:53 Sunny 61 16.1 27 -2.8 27 27 NNW 15 24 30.17 1022 10 16 0.00 0.00
8:53 am 08:53 Sunny 64 17.8 25 -3.9 23 23 N 17 28 30.17 1022 10 16 0.00 0.00
9:53 am 09:53 Sunny 67 19.4 24 -4.4 20 20 N 21 33 30.16 1021 10 16 0.00 0.00
10:53 am 10:53 Sunny 70 21.1 24 -4.4 18 18 NNW 16 26 30.15 1021 10 16 0.00 0.00
11:53 am 11:53 Sunny 73 22.8 24 -4.4 16 16 N 13 20 30.14 1021 10 16 0.00 0.00
12:53 pm 12:53 Sunny 78 25.6 25 -3.9 14 14 NNE 17 28 30.10 1019 10 16 0.00 0.00
1:53 pm 13:53 Sunny 79 26.1 26 -3.3 14 14 NE 15 24 30.06 1018 10 16 0.00 0.00
2:53 pm 14:53 Sunny 83 28.3 28 -2.2 13 13 NE 16 26 30.04 1017 10 16 0.00 0.00
3:53 pm 15:53 Sunny 84 28.9 29 -1.7 13 13 NE 13 20 30.01 1016 10 16 0.00 0.00
4:53 pm 16:53 Sunny 85 29.4 30 -1.1 14 14 NNE 18 30 29.98 1015 10 16 0.00 0.00
5:53 pm 17:53 Sunny 85 29.4 31 -0.6 14 14 NNE 18 30 29.97 1015 10 16 0.00 0.00
6:53 pm 18:53 Sunny 83 28.3 32 0 16 16 NNE 15 24 29.97 1015 10 16 0.00 0.00
7:53 pm 19:53 Sunny 80 26.7 33 0.6 18 18 N 13 20 29.97 1015 10 16 0.00 0.00
8:53 pm 20:53 Clear 76 24.4 34 1.1 22 22 N 7 11 29.99 1016 10 16 0.00 0.00
9:53 pm 21:53 Clear 74 23.3 34 1.1 23 23 NNE 14 22 30.01 1016 10 16 0.00 0.00
10:53 pm 22:53 Clear 71 21.7 35 1.7 27 27 NNE 12 19 30.03 1017 10 16 0.00 0.00
11:53 pm 23:53 Clear 67 19.4 35 1.7 31 31 NNE 8 13 30.04 1017 10 16 0.00 0.00

Powered by AerisWeather